TimeCST,TemperatureF,Dew PointF,Humidity,Sea Level PressureIn,VisibilityMPH,Wind Direction,Wind SpeedMPH,Gust SpeedMPH,PrecipitationIn,Events,Conditions,WindDirDegrees,DateUTC
12:53 AM,43.0,15.1,32,29.70,10.0,WSW,4.6,-,N/A,,Clear,240,2012-11-11 06:53:00
1:53 AM,42.1,17.1,37,29.71,10.0,WSW,6.9,-,N/A,,Overcast,240,2012-11-11 07:53:00
2:53 AM,42.1,30.9,65,29.73,10.0,North,12.7,-,N/A,,Overcast,10,2012-11-11 08:53:00
3:53 AM,39.0,32.0,76,29.77,10.0,North,8.1,-,N/A,,Scattered Clouds,360,2012-11-11 09:53:00
4:43 AM,37.4,30.2,75,29.84,10.0,North,15.0,21.9,N/A,,Overcast,10,2012-11-11 10:43:00
4:53 AM,37.0,30.0,76,29.79,10.0,North,19.6,23.0,N/A,,Overcast,10,2012-11-11 10:53:00
5:53 AM,34.0,26.1,73,29.83,10.0,North,19.6,-,N/A,,Overcast,10,2012-11-11 11:53:00
6:53 AM,30.9,23.0,72,29.87,10.0,North,20.7,28.8,N/A,,Overcast,360,2012-11-11 12:53:00
7:30 AM,28.4,21.2,74,29.94,10.0,North,15.0,-,N/A,,Scattered Clouds,350,2012-11-11 13:30:00
7:53 AM,28.9,19.0,67,29.93,10.0,North,15.0,-,N/A,,Clear,350,2012-11-11 13:53:00
8:53 AM,32.0,19.0,59,29.97,10.0,North,17.3,23.0,N/A,,Clear,360,2012-11-11 14:53:00
9:21 AM,33.8,19.4,56,30.00,10.0,NNW,18.4,24.2,N/A,,Mostly Cloudy,340,2012-11-11 15:21:00
9:53 AM,33.1,19.0,56,30.00,10.0,North,18.4,-,N/A,,Overcast,350,2012-11-11 15:53:00
10:13 AM,33.8,19.4,56,30.02,10.0,North,18.4,-,N/A,,Overcast,360,2012-11-11 16:13:00
10:53 AM,35.1,18.0,50,30.02,10.0,North,18.4,25.3,N/A,,Overcast,350,2012-11-11 16:53:00
11:53 AM,36.0,16.0,44,30.03,10.0,North,13.8,-,N/A,,Partly Cloudy,10,2012-11-11 17:53:00
12:53 PM,37.9,18.0,45,30.03,10.0,North,9.2,-,N/A,,Clear,10,2012-11-11 18:53:00
1:53 PM,41.0,16.0,36,30.03,10.0,North,11.5,-,N/A,,Clear,350,2012-11-11 19:53:00
2:53 PM,42.1,16.0,35,30.04,10.0,NNE,10.4,-,N/A,,Clear,20,2012-11-11 20:53:00
3:53 PM,42.1,15.1,34,30.08,10.0,North,11.5,17.3,N/A,,Clear,10,2012-11-11 21:53:00
4:53 PM,41.0,16.0,36,30.12,10.0,North,9.2,-,N/A,,Clear,350,2012-11-11 22:53:00
5:53 PM,34.0,15.1,46,30.18,10.0,NNW,6.9,-,N/A,,Clear,340,2012-11-11 23:53:00
6:53 PM,34.0,14.0,44,30.21,10.0,Calm,Calm,-,N/A,,Clear,0,2012-11-12 00:53:00
7:53 PM,35.1,12.9,40,30.23,10.0,Calm,Calm,-,N/A,,Clear,0,2012-11-12 01:53:00
8:53 PM,28.9,12.9,51,30.27,10.0,Calm,Calm,-,N/A,,Clear,0,2012-11-12 02:53:00
9:53 PM,30.9,16.0,54,30.28,10.0,WSW,3.5,-,N/A,,Clear,240,2012-11-12 03:53:00
10:53 PM,28.9,14.0,54,30.29,10.0,Calm,Calm,-,N/A,,Clear,0,2012-11-12 04:53:00
11:53 PM,27.0,14.0,58,30.30,10.0,SW,5.8,-,N/A,,Clear,230,2012-11-12 05:53:00